Погода в Большом Ломовисе

Россия / Тамбовская область     53°10′27″N   42°03′08″E
темп.,
°C
ветер,
м/с
пор.,
м/с
влажн.,
%
обл.,
%
осадки,
мм/ч
давл.,
гПа
погр.,
м
9 марта, вт
вт900:00−12зсз23920 0.0 100930
03:00−14зсз22940 0.0 101022
06:00−14сз249738 0.0 101180
09:00−12ссз369067 0.0 1012296
12:00−9ссз358394 0.0 1013543
15:00−9сз468296 0.1 1014758
18:00−11сз4892100 0.1 1015380
21:00−13сз4894100 0.2 1018328
10 марта, ср
ср1000:00−15сз379697 0.1 1018288
03:00−18сз399470 0.1 1020249
06:00−20сз489647 0.0 1022267
09:00−20сз479272 0.0 1023325
12:00−17сз468490 0.0 1024486
15:00−16сз468393 0.0 1025595
18:00−18сз3792100 0.0 1026322
21:00−20ссз2598100 0.1 1028164
11 марта, чт
чт1100:00−22ссз249837 0.0 102980
03:00−23ссз229819 0.0 103157
06:00−24ссз22970 0.0 103254
09:00−20сз24870 0.0 1033212
12:00−15сз35760 0.0 1032390
15:00−13сз46770 0.0 1032448
18:00−16зсз36911 0.0 1032162
21:00−18сз24941 0.0 103394
12 марта, пт
пт1200:00−19сз22950 0.0 103322
03:00−19сз11960 0.0 103320
06:00−20з11960 0.0 103420
09:00−15ю11820 0.0 1034155
12:00−10ююв22700 0.0 1034389
15:00−10ююв34800 0.0 1033282
18:00−13ююв35900 0.0 1032121
21:00−15ююв38940 0.0 1033182
13 марта, сб
сб1300:00−16ю4119314 0.0 1033255
03:00−16ю499344 0.0 1032253
06:00−15ююв51192100 0.0 1031281
09:00−12ю61282100 0.0 1030445
12:00−7ю71369100 0.0 1029797
15:00−6ю71370100 0.0 1027921
18:00−7ю61372100 0.0 1025901
21:00−7ю61372100 0.0 1025705